Location: Newark
(54.2500°N, 9.1833°E)
Time: 22:45:22
(UTC+00:00)

Transit 4A - Pass Details

Date: 22 December 2019
Orbit: 871 x 973 km, 66.8° (Epoch: 21 January)

Event Time Altitude Azimuth Distance (km) Brightness Sun altitude
Rises 16:46:07 0° 270° (W) 3,558 12.3 -13.9°
Reaches altitude 10° 16:49:01 10° 281° (WNW) 2,600 11.2 -14.3°
Maximum altitude 16:54:12 29° 341° (NNW) 1,585 9.1 -15.0°
Enters shadow 16:58:06 15° 33° (NNE) 2,203 9.4 -15.5°
